sat.trackr.live / text

‹ back to catalog

YAOGAN-20 01A

NORAD 40109 · 2014-047A

PAYLOAD ACTIVE UNKNOWN

§ Identity

Operator
Country
PRC
Launch date
2014-08-09
Launch site
JSC
Launch vehicle
Mass (kg)
RCS (m²)
2.81

External: N2YO · Heavens-Above · Gunter

§ Orbital elements

Epoch: 2026-05-25T04:06:53.140896Z

Period
107.03 min
Inclination
63.3790°
Eccentricity
0.0388248
Mean motion
13.45439564 rev/d
Perigee alt
799.2 km
Apogee alt
1,379.0 km
Semi-major
7,467.2 km
B*
1.0599e-4
RAAN
78.4881°
Arg perigee
14.5473°
Mean anomaly
346.6359°
Rev number
57,934

§ Raw data

YAOGAN-20 01A1 40109U 14047A   26145.17144839  .00000008  00000+0  10599-3 0  99992 40109  63.3790  78.4881 0388248  14.5473 346.6359 13.45439564579345

JSON: /api/v1/satellites/40109 · /tle

For live sub-satellite position, see the globe view (requires WebGL).

§ Visibility from observer

Set your observer location to see the next 7 days of passes ≥ 10°. The values pass through the URL so the page stays shareable.

No JS? Fill the form by hand. The geolocation button needs JavaScript.